Regional Weather Roundup
Issued by NWS

Home | Current Version | Previous Version | Graphics & Text | Print | Product List | Glossary On
Versions: 1 2 3 4 5 6 7 8 9 10 11 12 13 14 15 16 17 18 19 20 21 22 23 24 25 26 27 28 29 30 31 32 33 34 35 36 37 38 39 40 41 42 43 44 45 46 47 48 49 50
000
ASUS43 KIND 191909
RWRIN

WEATHER ROUNDUP FOR INDIANA
NATIONAL WEATHER SERVICE INDIANAPOLIS IN
200 PM EST SUN FEB 19 2017

NOTE: "FAIR" INDICATES FEW OR NO CLOUDS BELOW 12,000 FEET WITH NO
SIGNIFICANT WEATHER AND/OR OBSTRUCTIONS TO VISIBILITY.

* - STATION DOES NOT REPORT WEATHER SUCH AS PRECIPITATION OR FOG.

+ - STATION NOT QUALITY CONTROLLED BY THE NATIONAL WEATHER SERVICE.
    USE DATA WITH CAUTION...ESPECIALLY DEWPOINT AND RELATIVE
    HUMIDITY OBSERVATIONS.

INZ001>003-010>013-019-020-192000-
NORTHWEST INDIANA

CITY           SKY/WX    TMP DP  RH WIND       PRES   REMARKS
GARY /AIRPORT/ MOSUNNY   59  28  31 CALM      30.07F
KNOX *+        SUNNY     59  16  18 W7        30.06S
LA PORTE +     SUNNY     62  34  34 SW3       30.07R
MICHIGAN CITY+ SUNNY     59  34  38 NW6       30.07R
MONTICELLO +   SUNNY     58  45  62 S3        30.07S
RENSSELAER +   SUNNY     59  46  63 CALM      30.07F

$$

LMZ046-743>745-192000-
SOUTHERN LAKE MICHIGAN

STATION/POSITION TIME  TEMP    WIND        PRES    WAVE
                       AIR SEA DIR/SP/G            HT
                 (UTC) (F)     (DEG/KT/KT) (MB)    (FT)
BURNS HARBOR     1840   46      40/  5/  6 1018.6F
MICHIGAN CITY    1840   45     320/  6/  7   N/A

$$

INZ004-005-014>016-021>024-192000-
NORTH CENTRAL INDIANA

CITY           SKY/WX    TMP DP  RH WIND       PRES   REMARKS
ELKHART        SUNNY     63  28  27 W7        30.05S
GOSHEN         SUNNY     61  38  42 W9        30.05R
LOGANSPORT +   SUNNY     57  46  67 SW5       30.08S
PERU/GRISSOM   SUNNY     60  47  63 W8        30.06S
ROCHESTER +    SUNNY     59  45  58 SW8       30.08S
SOUTH BEND     SUNNY     64  29  26 W9        30.07S
WARSAW +       SUNNY     59  39  47 SW5       30.06S

$$

INZ006>009-017-018-025>027-192000-
NORTHEAST INDIANA

CITY           SKY/WX    TMP DP  RH WIND       PRES   REMARKS
ANGOLA *+      SUNNY     63  55  77 NW10      30.03S
AUBURN +       SUNNY     61  36  39 W7        30.05S
FORT WAYNE     MOSUNNY   60  43  53 W8        30.06S
HUNTINGTON +   SUNNY     60  42  50 W7        30.06S
KENDALLVILLE + SUNNY     61  33  34 NW6       30.05R

$$

INZ028-029-035-036-043>045-051>053-192000-
WEST CENTRAL INDIANA

CITY           SKY/WX    TMP DP  RH WIND       PRES   REMARKS
GREENCASTLE +  SUNNY     61  46  59 CALM      30.08S
LAFAYETTE      SUNNY     59  48  67 CALM      30.07S
TERRE HAUTE    SUNNY     62  47  57 VRB6      30.08F

$$

INZ030>032-037>040-046>048-054>057-064-065-192000-
CENTRAL INDIANA

CITY           SKY/WX    TMP DP  RH WIND       PRES   REMARKS
CP ATTERBURY + SUNNY     59  45  58 SE3       30.09F
COLUMBUS       MOSUNNY   54  48  82 SW5       30.10F
FRANKFORT +    PTSUNNY   63  49  58 CALM      30.09S
GREENWOOD *+   SUNNY     59  48  67 SW5       30.08F
INDIANAPOLIS   MOSUNNY   60  46  59 W5        30.07F
-EAGLE CREEK   SUNNY     60  46  59 VRB3      30.06F
KOKOMO +       SUNNY     60  46  59 VRB5      30.08S
MARION +       SUNNY     59  44  58 W7        30.08S
MT COMFORT *+  SUNNY     61  46  59 S5        30.08S
SHELBYVILLE    MOSUNNY   57  46  66 S5        30.08S
ZIONSVILLE +   SUNNY     58  46  62 SW5       30.08S

$$

INZ033-034-041-042-049-050-058-059-192000-
EAST CENTRAL INDIANA

CITY           SKY/WX    TMP DP  RH WIND       PRES   REMARKS
MUNCIE         SUNNY     61  45  55 VRB6      30.06F

$$

INZ060-061-067>069-081>083-085>088-192000-
SOUTHWEST INDIANA

CITY           SKY/WX    TMP DP  RH WIND       PRES   REMARKS
EVANSVILLE     CLOUDY    56  49  77 SE5       30.12R
HUNTINGBURG *+ CLOUDY    53  49  86 SW3       30.12R
WASHINGTON +   CLOUDY    55  48  78 S3        30.11S

$$

INZ062-063-066-070>080-084-089>092-192000-
SOUTH CENTRAL AND SOUTHEAST INDIANA

CITY           SKY/WX    TMP DP  RH WIND       PRES   REMARKS
BEDFORD +      CLOUDY    55  46  71 CALM      30.09F
BLOOMINGTON    CLOUDY    54  47  77 S3        30.10S
MADISON *+     CLOUDY    54  46  76 S3        30.12S
NORTH VERNON + CLOUDY   N/A N/A N/A SW5       30.10F
SEYMOUR +      CLOUDY    57  48  72 S3        30.10S

$$





USA.gov is the U.S. government's official web portal to all federal, state and local government web resources and services.